This is the latest recevied weather packets stored in our database for station/object OE-11399. If no packets are shown the sender has not sent any weather packets the latest 10 day(s).
| Time | Temp. | Humidity | Pressure | Rain* | Wind** | Luminosity | Snow |
|---|---|---|---|---|---|---|---|
| 1788019527 | 20° C | 52% | 853.2 hPa | 0 mm | - | 169 W/m² | - |
| 1788018926 | 20° C | 53% | 853.2 hPa | 0 mm | - | 315 W/m² | - |
| 1788018100 | 20° C | 53% | 853.2 hPa | 0 mm | - | 271 W/m² | - |
| 1788017727 | 20° C | 52% | 853.3 hPa | 0 mm | - | 183 W/m² | - |
| 1788017127 | 20° C | 53% | 853.4 hPa | 0 mm | - | 205 W/m² | - |
| 1788016300 | 19.44° C | 54% | 853.5 hPa | 0 mm | - | 154 W/m² | - |
| 1788015927 | 20° C | 53% | 853.5 hPa | 0 mm | - | 183 W/m² | - |
| 1788015327 | 20° C | 52% | 853.5 hPa | 0 mm | - | 103 W/m² | - |
| 1788014500 | 20° C | 52% | 853.4 hPa | 0 mm | - | 110 W/m² | - |
| 1788014127 | 20° C | 51% | 853.4 hPa | 0 mm | - | 161 W/m² | - |
| 1788013526 | 20.56° C | 54% | 853.5 hPa | 0 mm | - | 191 W/m² | - |
| 1788012700 | 20.56° C | 50% | 853.5 hPa | 0 mm | - | 235 W/m² | - |
| 1788012327 | 20° C | 50% | 853.6 hPa | 0 mm | - | 169 W/m² | - |
| 1788011727 | 20.56° C | 52% | 853.7 hPa | 0 mm | - | 227 W/m² | - |
| 1788010900 | 20° C | 50% | 853.6 hPa | 0 mm | - | 279 W/m² | - |
| 1788010527 | 20° C | 51% | 853.6 hPa | 0 mm | - | 242 W/m² | - |
| 1788009926 | 20° C | 52% | 853.7 hPa | 0 mm | - | 286 W/m² | - |
| 1788009099 | 20° C | 52% | 853.7 hPa | 0 mm | - | 205 W/m² | - |
| 1788008727 | 20° C | 52% | 853.8 hPa | 0 mm | - | 264 W/m² | - |
| 1788008127 | 20° C | 52% | 853.7 hPa | 0 mm | - | 242 W/m² | - |
| 1788007300 | 20° C | 49% | 853.8 hPa | 0 mm | - | 315 W/m² | - |
| 1788006927 | 20° C | 50% | 853.9 hPa | 0 mm | - | 257 W/m² | - |
| 1788006327 | 20° C | 50% | 853.9 hPa | 0 mm | - | 220 W/m² | - |
| 1788005499 | 20° C | 50% | 853.8 hPa | 0 mm | - | 235 W/m² | - |
| 1788005127 | 20° C | 50% | 853.9 hPa | 0 mm | - | 338 W/m² | - |
* Rain latest hour (hover to see other rain measurements)
** Current wind speed in m/s (hover to see current wind gust speed)